Regional Weather Roundup
Issued by NWS Sterling, VA

Home | Current Version | Previous Version | Text Only | Print | Product List | Glossary On
Versions: 1 2 3 4 5 6 7 8 9 10 11 12 13 14 15 16 17 18 19 20 21 22 23 24 25 26 27 28 29 30 31 32 33 34 35 36 37 38 39 40 41 42 43 44 45 46 47 48 49 50
000
ASUS41 KLWX 251010
RWRLWX

REGIONAL WEATHER ROUNDUP
NATIONAL WEATHER SERVICE BALTIMORE MD/WASHINGTON DC
600 AM EDT MON MAY 25 2015

Note: "FAIR" indicates few or no clouds below 12,000 feet
with no significant weather and/or obstructions to visibility.
 TC=TEMPERATURE CELSIUS

 * =Non NWS site. Station does not report precipitation (e.g. rain,
    snow, etc.), thunder, or fog.

DCZ001-MDZ009-015-VAZ040>042-051-053>054-251100-
WASHINGTON METRO

CITY           SKY/WX    TMP DP  RH WIND       PRES   REMARKS
WASHINGTON NAT PTCLDY    67  58  72 S9        30.25F
DULLES         PTCLDY    62  55  77 S5        30.24F
ANDREWS AFB    CLEAR     63  57  81 S7        30.25S
FT BELVOIR     CLEAR     57  55  94 CALM      30.25S
QUANTICO       CLEAR     66  57  72 SW9       30.27S
COLLEGE PARK*  CLEAR     63  59  88 CALM      30.24F
LEESBURG*      CLEAR     61  57  88 S3        30.25R
MANASSAS*      CLEAR     61  57  88 S3        30.25R
GAITHERSBURG*  CLEAR     61  54  77 CALM      30.28F

$$

MDZ006>007-011-014-251100-
BALTIMORE METRO

CITY           SKY/WX    TMP DP  RH WIND       PRES   REMARKS
BWI AIRPORT    PTCLDY    61  57  87 CALM      30.24F
MD SCIENCE CTR   N/A     65  58  78 MISG      30.25F
MARTIN STATE   CLEAR     64  63  94 SE3       30.26F
ANNAPOLIS      CLEAR     64  57  78 S5        30.26R
FORT MEADE*    CLEAR     54  52  94 CALM      30.27S

$$

MDZ012-015-019>023-251100-
MARYLAND EASTERN SHORE

CITY           SKY/WX    TMP DP  RH WIND       PRES   REMARKS
OCEAN CITY     CLEAR     64  59  83 SW6       30.31R
SALISBURY      CLEAR     58  56  93 CALM      30.30R
BAY BRIDGE AP*   N/A    N/A N/A N/A S6        30.27R
CAMBRIDGE*     CLEAR     63  55  77 S3        30.28S
EASTON*        CLEAR     66  61  85 S6        30.31S

$$

MDZ017>025-251100-
SOUTHERN MARYLAND

CITY           SKY/WX    TMP DP  RH WIND       PRES   REMARKS
PATUXENT RIVER CLEAR     65  56  72 SW8       30.28R
ST INIGOES     CLEAR     66  58  75 S7        30.28R
LEONARDTOWN*   CLEAR     63  55  77 SW8       30.29S

$$

MDZ003>005-251100-
NORTH CENTRAL MARYLAND

CITY           SKY/WX    TMP DP  RH WIND       PRES   REMARKS
FREDERICK*     FOG       54  54 100 CALM      30.26R VSB 1
HAGERSTOWN APT CLEAR     65  53  65 S6        30.22R
WESTMINSTER*   PTCLDY    63  57  82 S7        30.24S

$$

MDZ501>502-251100-
WESTERN MARYLAND

CITY           SKY/WX    TMP DP  RH WIND       PRES   REMARKS
OAKLAND*       CLEAR     55  54  94 SW9       30.28S
CUMBERLAND*    CLEAR     55  52  88 CALM      30.27R

$$

VAZ025>031-251100-
SHENANDOAH VALLEY

CITY           SKY/WX    TMP DP  RH WIND       PRES   REMARKS
WINCHESTER*    CLEAR     63  50  63 SW3       30.23R
FRONT ROYAL*   FAIR      61  54  77 S3        30.22S
LURAY*         FAIR      59  57  94 CALM      30.25R
NEW MARKET*    FAIR      54  53  95 CALM      30.25R
STAUNTON*      CLEAR     54  50  89 CALM      30.29R
WAYNESBORO*    FAIR      55  52  88 CALM      30.28R

$$

WVZ021-048>050-054>055-251100-
EASTERN WEST VIRGINIA PANHANDLE

CITY           SKY/WX    TMP DP  RH WIND       PRES   REMARKS
MARTINSBURG    CLEAR     59  53  80 S3        30.22R
PETERSBURG*    CLEAR     53  49  89 CALM      30.25S

$$

VAZ036>039-050-251100-
CENTRAL FOOTHILLS

CITY           SKY/WX    TMP DP  RH WIND       PRES   REMARKS
CHARLOTTESVILL CLEAR     59  54  83 S8        30.26R
CULPEPER*      CLEAR     60  55  84 CALM      30.26R
ORANGE*        CLEAR     57  55  94 CALM      30.28R
GORDONSVILLE*  FAIR      57  55  90 SW6       30.27R
WARRENTON*     FAIR      63  58  83 S6        30.25R

$$

VAZ055>057-251100-
NORTH AND CENTRAL PIEDMONT

CITY           SKY/WX    TMP DP  RH WIND       PRES   REMARKS
FREDERICKSBRG* CLEAR     63  58  83 S6        30.26S
STAFFORD*      CLEAR     60  55  85 S3        30.30S

$$

NCZ024-NYZ072-PAZ021-071-VAZ022-071-251100-
OTHER REGIONAL OBSERVATIONS

CITY           SKY/WX    TMP DP  RH WIND       PRES   REMARKS
NEW YORK CITY  PTCLDY    66  53  63 VRB3      30.29S
PHILADELPHIA   MOCLDY    65  57  75 S6        30.27S
PITTSBURGH     PTCLDY    61  50  67 S6        30.17S
ROANOKE        PTCLDY    60  54  80 CALM      30.32R
RICHMOND       PTCLDY    62  56  80 S6        30.31R
RALEIGH        PTCLDY    58  55  90 CALM      30.34R

$$

ANZ530>537-251100-
MARINE OBSERVATIONS

STATION/POSITION TIME  TEMP    WIND        PRES
                       AIR SEA DIR/SP/G
                 (UTC) (F)     (DEG/KT/KT) (MB)
THOMAS PT LIGHT  1000   67 66  190/ 11/ 12 1025.3R
BALT KEY BRIDGE  0900   65     180/  1/  2 1024.2R
LEWISETTA        0900   67 70              1025.2R
SOLOMONS ISLAND  0900      69                N/A
PINEY POINT      0900          230/ 12/ 14   N/A

$$




USA.gov is the U.S. government's official web portal to all federal, state and local government web resources and services.